This demonstration page uses our WeatherBlox Daily Observations layout. Learn more.

Left ArrowRight Arrow

39.12711, -84.51439

Hourly Observations for March 30, 2021

Temp ( °F °C ) Dew Point ( °F °C ) Humidity (%) Winds ( mph kmh ) Pressure ( in mb ) Visibility ( mi km ) Precip ( " mm )
1:53 am 01:53 Clear 38 3.3 34 1.1 86 86 Calm 30.1 1019 10 16.0934 0 0
2:53 am 02:53 Clear 37 2.8 33 0.6 86 86 Calm 30.1 1019 10 16.0934 0 0
3:53 am 03:53 Clear 35 1.7 33 0.6 93 93 Calm 30.1 1019 10 16.0934 0 0
4:53 am 04:53 Clear 34 1.1 33 0.6 97 97 Calm 30.09 1019 10 16.0934 0 0
5:53 am 05:53 Clear with Mist and Fog 32 0 30 -1.1 92 92 Calm 30.11 1020 3 4.82802 0 0
6:53 am 06:53 Clear 33 0.6 32 0 96 96 Calm 30.12 1020 10 16.0934 0 0
7:53 am 07:53 Sunny 36 2.2 34 1.1 93 93 Calm 30.12 1020 10 16.0934 0 0
8:53 am 08:53 Sunny 45 7.2 39 3.9 80 80 SW 6 9 30.12 1020 10 16.0934 0 0
9:53 am 09:53 Sunny 54 12.2 35 1.7 49 49 SSW 14 22 30.09 1019 10 16.0934 0 0
10:53 am 10:53 Sunny 60 15.6 37 2.8 42 42 S 12 19 30.09 1019 10 16.0934 0 0
11:53 am 11:53 Sunny 66 18.9 36 2.2 33 33 SSW 23 37 30.08 1019 10 16.0934 0 0
12:53 pm 12:53 Sunny 68 20 36 2.2 31 31 S 21 33 30.06 1018 10 16.0934 0 0
1:53 pm 13:53 Sunny 71 21.7 37 2.8 29 29 S 20 31 30.02 1017 10 16.0934 0 0
2:53 pm 14:53 Sunny 73 22.8 36 2.2 26 26 SSW 21 33 29.99 1016 10 16.0934 0 0
3:53 pm 15:53 Sunny 72 22.2 38 3.3 29 29 S 16 26 29.96 1015 10 16.0934 0 0
4:53 pm 16:53 Sunny 74 23.3 39 3.9 28 28 S 20 31 29.95 1014 10 16.0934 0 0
5:53 pm 17:53 Sunny 74 23.3 39 3.9 28 28 S 17 28 29.93 1014 10 16.0934 0 0
6:53 pm 18:53 Sunny 72 22.2 39 3.9 30 30 S 20 31 29.89 1012 10 16.0934 0 0
7:53 pm 19:53 Sunny 70 21.1 38 3.3 31 31 SSW 18 30 29.91 1013 10 16.0934 0 0
8:53 pm 20:53 Mostly Cloudy 71 21.7 40 4.4 32 32 SSW 13 20 29.91 1013 10 16.0934 0 0
9:53 pm 21:53 Mostly Cloudy 69 20.6 41 5 36 36 SSW 10 17 29.93 1014 10 16.0934 0 0
10:53 pm 22:53 Cloudy with Light Rain 66 18.9 46 7.8 49 49 SW 17 28 29.94 1014 10 16.0934 0.001 0.001
11:53 pm 23:53 Cloudy with Light Rain 59 15 53 11.7 81 81 WSW 8 13 29.96 1015 8 12.87472 0.04 1.016

Powered by AerisWeather